Temperature
22 22 21 21 20 20 20 20 19 19 19 18 18 18 18 18 17 17 17 17 17 17 16 16 16 16 16 16 16 15 15 15 15 14 13 13 13 13 13 13 13 13 13
22 22 21 21 20 20 20 20 19 19 19 18 18 18 18 17 17 17 16 16 16 16 16 16 16 16 15 15 15 15 15 15 15 14 13 13 13 13 13 12 12 12 12
22 22 21 21 20 20 20 19 19 19 19 18 18 18 17 17 17 16 16 16 16 16 16 16 15 15 15 15 15 15 15 14 14 14 13 13 13 12 12 12 12 12 12
22 22 21 21 20 20 20 19 19 19 19 18 18 18 17 17 17 16 16 16 16 16 15 15 15 15 15 15 15 15 14 14 14 14 13 13 12 12 12 12 12 11 11
22 22 21 21 20 20 20 19 19 19 19 18 18 17 17 17 16 16 16 16 15 15 15 15 15 15 15 15 15 14 14 14 14 13 13 12 12 12 12 12 11 11 11
22 22 21 21 20 20 19 19 19 19 18 18 18 17 17 17 16 16 16 15 15 15 15 15 15 15 15 14 14 14 14 14 14 13 13 13 12 12 12 12 11 11 11
22 22 21 21 20 20 19 19 19 18 18 18 17 17 17 17 16 16 15 15 15 15 15 15 15 15 15 15 14 14 14 14 14 13 13 13 13 12 12 12 11 11 11
22 21 21 20 20 19 19 19 19 18 18 18 17 17 17 17 16 16 15 15 15 15 15 14 14 14 14 14 14 14 14 13 13 13 13 13 12 12 12 12 12 11 11
21 21 20 20 20 19 19 19 18 18 18 17 17 17 17 16 16 15 15 15 15 15 14 14 14 14 14 14 13 13 13 13 13 13 12 12 12 12 12 11 11 11 10
21 21 20 20 19 19 19 19 18 18 18 17 17 17 16 16 16 15 15 15 15 14 14 14 14 14 14 13 13 13 13 13 12 12 12 12 12 12 11 11 11 11 11
21 20 20 20 19 19 19 18 18 18 17 17 17 16 16 16 16 15 15 15 15 14 14 14 14 13 13 13 13 13 13 12 12 12 12 12 11 11 11 11 11 11 11
20 20 20 19 19 19 18 18 18 17 17 17 16 16 16 16 16 15 15 15 14 14 14 14 14 13 13 13 13 13 12 12 12 12 12 12 11 11 11 11 11 11 10
20 20 19 19 19 18 18 18 17 17 17 16 16 16 16 16 15 15 15 15 14 14 14 14 13 13 13 13 13 12 12 12 12 12 12 12 11 11 11 11 11 10 10
19 19 19 18 18 18 17 17 17 17 16 16 16 16 16 16 15 15 15 15 14 14 14 13 13 13 13 12 12 12 12 12 12 12 12 12 11 11 11 11 10 10 10
18 18 18 18 18 17 17 17 17 17 17 17 16 16 16 16 16 16 15 15 15 14 14 13 13 13 13 12 12 12 12 12 12 12 12 11 11 11 11 10 10 10 10
18 17 17 17 17 17 16 16 16 16 16 16 16 15 16 16 15 15 15 14 14 14 13 13 13 13 13 13 12 12 12 12 12 12 11 11 11 11 11 10 10 10 10
17 17 17 16 16 16 16 16 16 15 15 15 15 15 15 15 15 15 14 14 14 13 13 13 13 13 13 13 12 12 12 12 12 12 11 11 11 11 11 10 10 10 10
17 16 16 16 16 16 15 15 15 15 15 15 15 15 15 15 14 14 14 14 13 13 13 13 13 13 13 13 12 12 12 12 12 11 11 11 11 11 11 10 10 10 10
16 16 16 15 15 15 15 15 15 15 15 14 14 14 14 14 14 13 13 13 13 13 13 13 13 13 13 12 12 12 12 12 11 11 11 11 11 11 10 10 10 10 10
16 15 15 15 15 15 15 15 14 14 14 14 14 14 14 14 13 13 13 13 13 13 13 13 13 13 12 12 12 12 11 11 11 11 11 11 11 10 10 10 10 10 10
15 15 15 14 14 14 14 14 14 14 14 14 14 14 14 14 14 13 13 13 13 13 13 13 13 12 12 12 12 12 11 11 11 11 10 10 10 10 10 10 10 10 10
14 14 14 14 14 14 14 14 13 13 13 13 13 13 13 13 13 13 13 13 13 13 12 12 12 12 12 12 12 11 11 11 11 10 10 10 10 10 10 10 9 9 9
14 14 14 14 14 14 13 13 13 13 13 13 13 13 13 13 13 13 13 12 12 12 12 12 12 12 12 12 11 11 11 11 11 10 10 10 10 9 9 9 9 9 9
13 13 13 13 13 13 13 13 13 13 12 12 12 12 12 12 12 12 12 12 12 12 12 12 12 12 12 11 11 11 11 11 10 10 10 9 9 9 9 9 9 8 8
13 13 13 13 13 13 13 12 12 12 12 12 12 12 12 12 12 12 12 12 12 12 12 12 11 11 11 11 11 11 10 10 10 9 9 9 9 9 8 8 8 8 8
12 12 12 12 12 12 12 12 12 12 12 12 11 11 11 11 12 12 12 11 12 11 11 11 11 11 11 11 10 10 10 10 9 9 9 9 8 8 8 7 7 7 7
Wind_Speed
9 8 7 7 7 6 6 6 5 4 4 4 3 3 3 2 2 2 1 1 2 1 1 2 1 1 1 1 2 3 3 4 4 2 2 3 3 4 6 8 8 8 9
9 8 7 7 7 7 6 6 5 5 4 4 4 3 3 2 2 2 1 2 2 2 1 2 1 2 2 1 2 3 3 3 5 5 3 2 3 4 5 5 6 7 7
9 9 8 8 8 7 7 6 5 5 4 4 4 4 3 3 2 2 2 2 2 2 2 2 2 3 2 2 3 3 3 4 4 6 4 2 2 4 4 4 4 4 5
9 9 9 9 9 8 7 7 6 6 5 5 4 4 3 3 3 2 2 3 2 2 2 2 2 2 2 3 3 4 5 6 6 6 5 3 3 3 4 4 3 2 2
10 10 9 8 8 8 7 7 7 6 6 5 5 4 4 3 3 3 2 3 3 3 2 1 1 3 4 3 4 5 6 6 6 6 5 3 3 4 4 3 3 2 1
10 10 9 8 8 8 8 7 7 6 5 5 5 5 4 3 4 5 3 2 3 3 3 1 1 2 3 5 6 8 9 9 8 6 4 5 4 4 4 4 4 3 1
9 9 9 9 9 8 9 8 8 7 6 6 5 5 4 4 5 6 5 4 3 3 3 3 3 3 4 4 5 6 5 7 9 8 7 7 6 7 7 5 4 4 3
9 9 8 9 8 8 8 8 7 6 7 6 6 6 5 5 6 7 6 4 3 2 3 4 4 3 4 6 5 4 3 3 4 5 7 6 7 6 7 7 6 4 2
9 9 9 9 9 9 9 8 7 6 6 5 6 6 5 4 6 7 6 3 2 2 1 3 4 4 5 8 6 5 3 1 3 5 6 8 10 11 10 6 5 4 2
9 9 9 9 9 9 9 8 6 6 6 7 6 6 6 5 6 8 7 3 3 2 1 1 4 5 7 8 6 6 5 3 3 3 3 4 6 9 11 7 7 5 3
8 8 8 9 9 9 7 6 6 6 6 6 6 5 5 6 7 9 8 5 4 4 3 2 2 6 7 8 7 5 7 5 4 4 3 2 2 3 4 6 6 5 5
7 8 8 8 8 7 7 6 6 7 7 6 5 4 4 4 6 8 11 9 7 5 5 4 4 7 8 8 6 5 6 6 4 3 3 3 3 3 3 5 7 8 7
7 7 7 7 6 7 7 7 6 7 6 6 5 5 4 4 5 9 10 11 10 6 5 6 7 7 7 5 6 7 6 5 4 4 4 4 4 4 3 3 3 4 4
7 7 6 7 6 5 5 6 6 7 7 6 6 6 5 4 5 5 6 6 8 6 4 5 6 6 5 4 4 4 4 5 5 5 4 3 2 2 3 3 3 2 1
6 5 5 6 6 5 5 5 7 7 8 8 7 7 7 7 9 10 9 7 7 7 5 2 2 2 3 3 3 3 3 3 4 4 4 3 3 3 3 3 3 3 3
5 5 4 5 5 4 5 3 3 4 7 9 9 8 7 9 10 12 13 12 12 11 7 4 5 6 7 7 6 6 5 6 6 5 5 5 5 5 4 3 3 4 4
5 5 5 5 5 5 5 5 4 2 2 4 7 8 8 9 10 10 11 11 11 12 6 6 7 7 7 7 7 7 6 6 5 5 6 5 5 5 4 4 4 4 4
4 5 5 5 5 5 6 6 6 6 4 3 4 6 8 8 9 9 8 7 5 7 6 7 8 7 7 7 7 7 6 5 5 5 6 6 6 5 5 5 5 5 5
3 4 4 5 5 5 5 5 5 6 5 4 2 3 5 5 6 7 8 6 7 7 8 7 7 7 6 6 6 6 6 6 6 6 6 6 6 6 6 6 6 7 6
3 5 4 4 4 4 5 5 5 6 5 5 5 4 3 3 3 4 6 7 7 7 7 7 7 6 6 6 6 5 5 5 6 6 6 6 6 6 7 7 6 5 6
3 4 5 4 4 5 5 5 5 5 5 5 5 6 7 6 7 7 7 7 8 8 7 7 7 6 6 5 6 6 7 6 6 6 5 5 5 5 5 5 6 6 5
2 3 3 4 4 4 4 4 5 5 5 5 3 4 7 5 5 5 6 7 7 7 6 6 6 6 6 6 6 6 6 6 5 5 5 5 4 5 5 5 5 4 5
2 2 2 2 3 3 3 4 5 5 5 5 4 3 4 5 5 6 6 6 6 5 5 5 5 5 4 4 5 6 6 6 6 6 5 5 5 5 5 5 6 5 5
2 2 2 2 2 3 4 4 5 5 5 4 4 4 4 6 6 6 6 5 5 4 4 4 5 6 6 5 5 6 6 6 7 6 6 6 5 4 4 4 5 6 6
1 1 2 2 2 3 3 3 3 4 4 3 3 4 4 4 5 5 5 4 4 4 4 4 4 5 6 6 5 5 6 7 7 6 5 5 5 5 4 4 4 4 5
0 1 1 1 2 2 2 2 2 2 2 2 2 3 3 3 3 3 3 3 3 3 3 3 3 4 4 4 5 5 5 5 6 7 6 4 5 5 4 4 5 4 4
Wind_Direction
184 186 183 181 179 171 168 166 164 163 150 144 135 125 119 107 101 106 127 101 98 65 56 76 54 76 88 131 143 139 132 129 135 116 96 123 116 120 112 106 104 103 107
183 180 178 173 165 163 163 162 156 151 147 142 136 125 122 111 105 113 114 103 103 95 69 67 44 74 70 96 130 129 130 127 135 138 134 128 123 136 126 119 115 110 112
175 172 171 170 169 169 165 159 152 147 143 134 129 130 125 119 114 125 137 135 123 117 106 96 85 90 84 93 116 121 121 118 117 138 142 128 120 135 120 116 111 106 117
173 173 177 178 175 172 165 155 154 152 148 145 144 142 136 126 123 121 120 118 106 104 105 110 111 126 137 131 127 127 122 116 120 130 133 130 123 127 129 130 116 98 121
173 178 184 178 171 167 162 159 158 156 157 154 147 143 146 142 146 140 136 131 125 110 91 83 111 138 147 148 146 144 137 132 134 135 139 133 140 151 166 159 146 133 90
175 178 176 170 169 169 165 161 159 159 157 153 155 156 157 164 156 151 140 131 141 142 140 131 123 112 127 132 136 143 150 152 155 153 156 165 174 173 161 161 151 147 193
180 178 173 170 171 171 169 164 167 168 163 161 160 158 167 178 166 161 154 142 143 156 164 166 161 143 135 131 129 123 133 153 160 161 166 178 178 181 169 168 172 169 190
178 177 174 171 172 171 169 172 173 170 171 173 172 172 175 185 172 166 157 141 137 140 162 170 160 154 154 146 137 121 114 128 156 158 172 184 181 176 177 175 172 156 136
181 181 178 174 172 175 178 181 180 174 175 175 177 179 182 193 181 172 155 141 146 147 168 167 158 157 165 152 140 135 126 116 136 155 168 174 174 170 163 143 142 142 167
189 185 179 175 176 181 185 183 179 175 178 176 182 186 186 193 191 179 165 156 165 178 173 171 168 165 167 162 154 154 158 177 158 138 134 151 162 170 171 169 168 164 163
185 177 178 178 182 183 181 178 175 176 175 177 184 196 197 197 196 189 181 178 185 186 189 206 209 183 174 176 170 173 186 178 171 166 159 155 153 172 184 184 181 172 175
172 174 179 179 181 179 176 176 177 178 181 186 190 204 214 208 201 200 193 196 194 194 203 204 204 193 189 191 189 191 179 162 153 154 164 185 195 207 213 204 199 198 202
169 174 175 176 178 174 175 178 181 181 186 193 196 207 218 218 213 206 199 200 199 200 208 202 199 198 195 202 210 191 170 161 163 175 196 212 213 210 201 194 195 200 217
170 174 174 176 179 180 183 183 187 191 194 198 205 213 215 215 215 207 204 206 206 209 215 217 206 201 197 205 204 198 189 183 182 194 201 210 200 185 190 189 193 191 199
170 172 176 181 184 187 191 194 197 202 201 200 206 205 202 216 220 207 197 201 201 199 175 158 172 188 207 216 216 216 206 196 201 204 202 203 199 196 207 197 189 180 192
168 176 179 181 182 183 185 195 217 214 220 219 212 205 215 217 208 203 204 201 193 178 163 191 208 213 214 212 211 214 211 209 210 206 204 203 205 208 212 206 192 192 207
183 186 186 186 187 191 194 194 208 245 237 229 226 216 213 211 204 202 204 201 191 173 188 210 215 216 217 215 213 211 214 214 206 203 206 208 209 210 204 204 200 202 213
194 193 194 196 196 198 200 199 197 199 209 237 248 230 220 214 210 206 195 173 188 194 213 218 221 220 216 214 213 212 212 209 206 208 209 209 207 202 202 206 205 205 211
206 204 203 204 202 202 200 198 201 201 203 209 222 247 231 212 203 198 174 186 203 210 216 222 220 216 217 214 214 213 210 211 210 207 210 209 206 203 210 212 208 208 206
227 217 213 213 209 205 201 200 200 201 203 205 210 217 194 165 193 203 204 212 215 219 216 218 218 216 213 211 210 209 210 213 215 216 216 213 208 205 209 209 205 204 210
241 226 215 213 213 210 207 207 205 205 206 212 220 216 192 198 210 212 212 217 220 222 222 217 215 215 212 209 207 208 210 216 217 217 218 218 209 207 208 206 207 208 209
239 231 216 212 212 212 210 207 204 204 208 213 226 222 208 212 218 219 219 223 225 226 223 218 217 216 211 206 205 205 207 212 215 215 213 211 207 205 205 204 207 209 205
230 225 226 223 210 200 202 203 203 206 210 216 219 221 213 222 229 227 226 227 225 225 219 210 213 219 209 202 198 200 205 210 212 208 206 208 206 203 203 206 209 206 206
228 215 209 206 200 197 200 207 210 213 215 216 218 223 223 223 226 227 225 221 215 213 204 199 201 204 200 199 202 204 207 209 203 201 195 199 203 204 204 205 210 212 210
216 202 203 204 201 202 202 212 217 216 215 214 214 220 226 223 224 222 217 212 203 201 197 192 192 192 194 195 196 203 206 202 201 198 191 192 201 203 202 203 205 211 215
139 167 187 189 191 190 190 199 207 210 212 208 214 224 223 220 222 220 215 212 202 200 196 187 186 186 188 195 201 198 198 197 197 196 190 189 203 210 207 209 210 212 212
Height
1528 1530 1531 1532 1534 1535 1536 1536 1537 1537 1537 1537 1537 1536 1535 1534 1533 1533 1532 1531 1530 1530 1529 1529 1528 1528 1528 1528 1529 1529 1530 1531 1531 1532 1533 1535 1536 1537 1537 1538 1538 1538 1539
1527 1528 1530 1531 1532 1533 1534 1535 1535 1536 1536 1536 1536 1535 1534 1533 1532 1531 1530 1530 1529 1528 1528 1527 1527 1527 1527 1527 1528 1528 1528 1529 1530 1530 1532 1533 1535 1536 1537 1538 1538 1539 1539
1525 1526 1528 1529 1530 1531 1532 1533 1533 1534 1534 1534 1534 1533 1533 1532 1531 1530 1529 1528 1527 1527 1526 1526 1526 1526 1526 1526 1527 1527 1527 1528 1529 1529 1530 1532 1533 1535 1536 1537 1538 1538 1539
1522 1524 1526 1527 1528 1529 1530 1531 1532 1532 1532 1532 1532 1532 1531 1530 1529 1529 1528 1527 1526 1526 1525 1525 1525 1525 1525 1525 1526 1526 1526 1527 1528 1529 1530 1531 1533 1534 1535 1536 1537 1538 1539
1519 1521 1523 1524 1526 1527 1528 1529 1529 1530 1530 1530 1530 1530 1529 1529 1528 1528 1527 1526 1526 1525 1524 1524 1524 1524 1524 1525 1525 1525 1526 1526 1527 1528 1529 1530 1531 1532 1534 1535 1536 1537 1538
1516 1518 1521 1522 1523 1524 1525 1526 1527 1528 1528 1528 1528 1528 1527 1527 1527 1526 1526 1526 1525 1524 1524 1523 1523 1523 1523 1524 1524 1525 1525 1526 1526 1527 1527 1528 1530 1531 1533 1534 1535 1536 1537
1514 1515 1517 1519 1520 1521 1522 1523 1524 1525 1525 1525 1525 1526 1526 1526 1525 1525 1525 1525 1524 1523 1522 1522 1522 1522 1523 1523 1524 1524 1525 1525 1526 1527 1527 1528 1529 1530 1531 1532 1533 1534 1535
1511 1513 1515 1516 1517 1518 1520 1520 1521 1522 1522 1522 1522 1523 1523 1523 1523 1523 1523 1523 1523 1523 1522 1522 1521 1522 1522 1522 1523 1523 1524 1524 1525 1526 1527 1528 1529 1529 1530 1532 1533 1534 1535
1508 1510 1511 1513 1514 1515 1516 1517 1518 1518 1519 1519 1520 1520 1520 1521 1521 1522 1522 1522 1522 1521 1521 1521 1521 1521 1521 1522 1522 1522 1523 1523 1524 1525 1526 1527 1528 1529 1529 1530 1531 1532 1533
1505 1506 1508 1509 1511 1512 1513 1513 1515 1515 1516 1516 1516 1517 1518 1518 1519 1520 1520 1520 1520 1520 1520 1520 1520 1520 1521 1521 1521 1521 1522 1522 1523 1524 1525 1526 1526 1527 1528 1529 1530 1531 1531
1502 1503 1505 1506 1507 1508 1509 1510 1511 1512 1513 1513 1514 1514 1514 1515 1516 1516 1517 1518 1518 1518 1518 1518 1519 1519 1519 1520 1520 1520 1521 1521 1522 1522 1523 1524 1525 1526 1527 1528 1528 1529 1530
1498 1499 1500 1502 1504 1505 1506 1507 1508 1509 1510 1510 1510 1511 1511 1512 1512 1513 1514 1514 1515 1515 1515 1516 1517 1517 1517 1518 1518 1519 1519 1520 1520 1521 1521 1522 1523 1524 1525 1526 1526 1527 1528
1495 1495 1497 1498 1499 1501 1502 1503 1504 1505 1505 1506 1507 1507 1508 1508 1509 1510 1510 1511 1512 1512 1513 1513 1514 1515 1515 1516 1516 1517 1517 1517 1518 1518 1519 1520 1521 1522 1523 1524 1524 1525 1526
1491 1491 1493 1494 1495 1497 1498 1499 1500 1501 1501 1502 1502 1503 1504 1505 1505 1506 1506 1507 1508 1509 1510 1510 1511 1511 1512 1512 1513 1514 1514 1515 1515 1516 1517 1518 1519 1519 1520 1521 1521 1522 1523
1487 1488 1489 1490 1491 1493 1494 1495 1496 1497 1497 1498 1498 1499 1499 1500 1501 1502 1502 1503 1504 1505 1505 1506 1506 1507 1507 1508 1509 1509 1510 1511 1512 1513 1514 1514 1515 1516 1517 1518 1518 1519 1519
1484 1485 1486 1487 1488 1489 1490 1491 1492 1494 1494 1495 1496 1496 1496 1496 1497 1497 1498 1498 1499 1500 1500 1500 1501 1501 1502 1502 1503 1504 1505 1506 1508 1509 1510 1511 1512 1512 1513 1514 1515 1516 1516
1481 1481 1482 1483 1484 1484 1485 1486 1487 1488 1489 1490 1491 1492 1492 1492 1492 1492 1493 1493 1494 1494 1494 1494 1495 1496 1497 1497 1498 1499 1500 1502 1503 1504 1505 1507 1508 1508 1509 1510 1511 1511 1512
1478 1478 1479 1479 1480 1481 1481 1482 1483 1483 1484 1484 1486 1487 1487 1487 1488 1488 1489 1489 1488 1488 1488 1488 1489 1490 1491 1492 1493 1494 1495 1497 1498 1499 1500 1502 1503 1503 1504 1505 1506 1507 1508
1474 1475 1475 1476 1476 1477 1477 1478 1478 1479 1479 1480 1481 1482 1483 1483 1483 1483 1483 1483 1482 1482 1483 1483 1484 1485 1486 1487 1487 1488 1490 1491 1492 1494 1495 1496 1497 1498 1499 1500 1501 1502 1503
1471 1471 1471 1472 1472 1473 1473 1474 1474 1474 1475 1475 1476 1477 1478 1478 1477 1477 1477 1477 1477 1477 1478 1479 1479 1480 1481 1482 1483 1484 1484 1485 1487 1488 1489 1491 1492 1493 1494 1495 1496 1496 1497
1466 1467 1467 1468 1468 1468 1469 1469 1470 1470 1470 1471 1472 1472 1473 1473 1473 1472 1472 1472 1472 1473 1473 1474 1475 1476 1477 1477 1478 1478 1479 1480 1481 1482 1483 1485 1486 1487 1488 1489 1490 1491 1492
1462 1463 1463 1463 1463 1464 1465 1465 1466 1466 1467 1467 1468 1468 1468 1469 1468 1468 1468 1468 1468 1469 1470 1470 1470 1471 1472 1472 1473 1473 1474 1475 1476 1477 1478 1479 1480 1481 1482 1483 1484 1485 1486
1459 1459 1459 1459 1460 1460 1461 1461 1462 1462 1463 1463 1464 1464 1464 1464 1464 1463 1464 1464 1465 1465 1466 1466 1466 1467 1468 1468 1469 1469 1469 1469 1470 1472 1472 1473 1474 1475 1476 1477 1478 1479 1479
1455 1455 1455 1456 1456 1456 1457 1458 1458 1458 1459 1459 1459 1459 1459 1459 1459 1459 1460 1460 1460 1461 1461 1462 1462 1463 1463 1464 1464 1464 1465 1465 1466 1466 1467 1467 1468 1469 1470 1471 1471 1472 1473
1452 1453 1453 1453 1453 1453 1454 1454 1454 1455 1455 1455 1455 1455 1455 1455 1455 1455 1456 1456 1456 1457 1457 1458 1458 1458 1459 1459 1459 1460 1460 1460 1461 1461 1462 1462 1463 1463 1464 1465 1465 1466 1468
1450 1450 1451 1451 1451 1451 1451 1451 1451 1451 1451 1452 1452 1452 1452 1451 1451 1451 1452 1452 1452 1453 1453 1454 1454 1454 1454 1454 1455 1455 1455 1455 1456 1456 1456 1457 1457 1458 1458 1459 1460 1461 1462